カタログに戻る

STARLINK-30176

運用中通信VLEO
NORAD 57477·PAYLOAD·🇺🇸 United States

打ち上げ Jul 28, 2023 から Cape Canaveral Space Force Station

Loading…

次のパス (今後24時間)

TLE

最新Source: CelesTrak SupGP

元期: Sep 14, 2026, 21:36 UTC

1 57477C 23107W   26257.90048611 -.00076951  00000+0 -27864-2 0  2579
2 57477  43.0020 347.2953 0001561 262.2564 228.3742 15.27625024    17

AllMySatでSTARLINK-30176をリアルタイム追跡

Download on the App Store